TimeMDT,TemperatureF,Dew PointF,Humidity,Sea Level PressureIn,VisibilityMPH,Wind Direction,Wind SpeedMPH,Gust SpeedMPH,PrecipitationIn,Events,Conditions,WindDirDegrees,DateUTC
12:52 AM,61.0,48.0,62,30.10,10.0,NE,17.3,27.6,N/A,,Overcast,50,2012-09-13 06:52:00
1:52 AM,57.9,46.9,67,30.09,10.0,East,17.3,27.6,N/A,,Overcast,80,2012-09-13 07:52:00
2:52 AM,57.9,46.9,67,30.09,10.0,ENE,18.4,27.6,N/A,,Overcast,70,2012-09-13 08:52:00
3:52 AM,57.9,46.0,65,30.12,10.0,East,23.0,34.5,N/A,,Overcast,80,2012-09-13 09:52:00
4:52 AM,57.9,46.0,65,30.16,10.0,East,9.2,17.3,N/A,,Overcast,90,2012-09-13 10:52:00
5:52 AM,55.9,46.9,72,30.20,8.0,East,19.6,31.1,0.02,Rain,Light Rain,90,2012-09-13 11:52:00
6:52 AM,55.0,48.0,77,30.22,10.0,East,24.2,29.9,0.05,Rain,Light Rain,80,2012-09-13 12:52:00
7:25 AM,55.4,48.2,77,30.39,10.0,NE,5.8,-,0.02,Rain,Light Rain,40,2012-09-13 13:25:00
7:52 AM,55.9,48.9,77,30.25,10.0,NE,4.6,-,0.02,Rain,Light Rain,50,2012-09-13 13:52:00
8:52 AM,55.9,50.0,80,30.27,10.0,WNW,3.5,-,0.00,Rain,Light Rain,290,2012-09-13 14:52:00
9:52 AM,57.0,51.1,81,30.31,10.0,Calm,Calm,-,0.00,,Overcast,0,2012-09-13 15:52:00
10:25 AM,57.2,48.2,72,30.45,10.0,ESE,16.1,-,N/A,,Overcast,110,2012-09-13 16:25:00
10:52 AM,57.9,48.0,70,30.32,10.0,East,16.1,24.2,N/A,,Mostly Cloudy,100,2012-09-13 16:52:00
11:52 AM,59.0,48.0,67,30.32,10.0,East,17.3,29.9,N/A,,Mostly Cloudy,100,2012-09-13 17:52:00
12:52 PM,62.1,48.0,60,30.29,10.0,East,23.0,32.2,N/A,,Mostly Cloudy,100,2012-09-13 18:52:00
1:52 PM,64.9,45.0,48,30.28,10.0,East,21.9,32.2,N/A,,Mostly Cloudy,100,2012-09-13 19:52:00
2:52 PM,64.9,44.1,47,30.25,10.0,East,19.6,31.1,N/A,,Mostly Cloudy,100,2012-09-13 20:52:00
3:52 PM,66.0,44.1,45,30.25,10.0,East,15.0,20.7,N/A,,Mostly Cloudy,80,2012-09-13 21:52:00
4:52 PM,66.9,43.0,42,30.23,10.0,East,15.0,31.1,N/A,,Mostly Cloudy,90,2012-09-13 22:52:00
5:52 PM,66.0,42.1,42,30.24,10.0,East,19.6,-,N/A,,Scattered Clouds,100,2012-09-13 23:52:00
6:52 PM,63.0,43.0,48,30.26,10.0,East,17.3,-,N/A,,Scattered Clouds,100,2012-09-14 00:52:00
7:52 PM,60.1,45.0,57,30.29,10.0,ESE,16.1,-,N/A,,Scattered Clouds,120,2012-09-14 01:52:00
8:52 PM,57.9,45.0,62,30.32,10.0,ESE,13.8,-,N/A,,Scattered Clouds,110,2012-09-14 02:52:00
9:52 PM,57.9,45.0,62,30.33,10.0,ESE,19.6,-,N/A,,Scattered Clouds,110,2012-09-14 03:52:00
10:52 PM,57.0,44.1,62,30.35,10.0,East,16.1,-,N/A,,Partly Cloudy,100,2012-09-14 04:52:00
11:52 PM,55.9,44.1,64,30.35,10.0,East,15.0,-,N/A,,Partly Cloudy,100,2012-09-14 05:52:00